Theta_e
277 276 276 276 276 276 276 275 275 276 276 276 276 276 275 275 275 275 276 280 280 282 282 282 283 285 286 288 290 295 307 310 307 306 302 299 299 300 300 302 302 302 302
276 276 276 276 276 275 275 275 275 274 275 275 275 275 274 274 274 274 275 277 278 279 280 281 281 284 283 285 285 287 295 310 308 305 294 294 298 300 300 300 301 301 301
276 275 275 275 275 274 274 274 275 273 272 273 273 273 272 272 272 273 275 277 278 278 278 279 280 281 281 282 283 285 289 302 308 306 292 293 292 298 296 296 297 297 297
276 275 274 274 274 273 274 274 274 273 272 271 270 271 271 271 271 273 275 276 277 278 278 279 279 279 280 280 282 283 286 288 301 305 291 289 291 291 296 293 289 289 291
275 274 274 275 274 273 273 273 273 273 273 271 271 269 269 269 272 272 275 276 276 276 276 277 278 278 280 282 282 283 284 286 290 299 288 286 286 287 291 291 291 288 285
275 274 274 274 274 273 273 272 272 272 271 271 271 269 267 269 273 276 277 275 275 274 273 274 276 277 278 281 282 284 285 284 286 290 290 290 290 292 293 291 290 287 286
274 274 274 274 273 272 272 271 271 270 270 270 268 267 265 266 272 275 277 274 272 272 272 272 274 276 276 277 281 283 283 286 288 289 288 290 288 291 291 288 288 290 288
275 274 274 273 272 271 270 270 269 269 268 266 264 263 262 265 272 274 275 272 271 270 270 271 272 272 274 277 279 279 281 283 285 286 288 289 292 290 291 290 290 286 285
274 274 273 272 270 269 268 266 265 266 262 261 264 263 262 263 270 273 274 270 271 269 270 271 271 272 275 280 278 277 278 281 285 287 289 291 293 292 291 288 286 287 284
273 273 271 269 269 267 266 266 267 263 264 264 263 263 263 261 268 272 273 271 268 268 271 270 274 272 277 280 276 276 276 278 280 282 285 286 290 289 291 291 289 288 286
270 269 268 267 267 266 266 266 264 261 261 258 260 260 261 261 262 271 274 271 269 271 269 270 270 275 278 277 278 277 278 280 278 279 285 285 286 286 287 286 289 291 288
266 266 265 265 267 267 265 264 262 260 259 257 257 259 261 261 265 270 273 274 274 271 270 270 271 275 275 276 276 278 279 277 274 275 284 284 284 284 285 285 285 285 284
263 262 260 262 265 265 263 260 259 259 258 258 260 260 261 264 263 270 272 273 274 272 271 273 272 272 272 272 274 275 273 271 271 272 273 276 284 284 281 280 279 280 280
260 259 259 259 259 260 262 263 261 258 257 260 261 261 263 266 266 267 269 272 273 272 272 265 268 268 269 269 268 269 269 269 269 269 270 273 281 281 280 279 279 279 279
259 258 257 259 259 260 261 261 262 262 263 263 265 266 265 264 266 272 273 271 272 272 265 261 261 262 262 263 264 265 266 267 266 267 269 271 273 280 279 279 279 279 279
261 261 260 260 259 260 259 260 265 267 269 270 271 269 269 270 272 273 273 274 273 272 260 257 258 259 259 261 261 262 263 264 264 266 268 269 271 273 278 279 279 279 277
260 261 260 260 259 258 258 258 257 260 265 266 268 268 269 270 271 271 272 273 270 266 250 256 257 258 258 259 260 261 261 262 264 265 266 267 269 270 277 278 279 279 277
255 257 257 258 258 256 256 257 257 254 254 256 261 264 267 268 268 269 271 267 259 258 250 253 254 256 257 257 258 259 260 260 261 263 264 266 267 267 269 277 278 279 277
254 256 256 257 257 257 256 255 254 251 251 252 254 259 260 264 266 267 267 254 254 253 253 251 253 254 255 256 256 257 259 259 260 261 262 264 264 265 266 268 276 279 277
252 254 256 257 256 255 254 253 251 249 250 250 252 253 252 250 253 254 251 250 248 251 253 251 252 252 252 253 254 255 257 257 258 259 261 262 262 263 264 266 268 275 276
255 256 256 255 254 252 252 252 253 251 251 251 252 255 264 261 258 259 256 255 251 253 254 252 254 251 251 251 251 252 255 256 257 258 259 260 261 261 263 264 266 268 278
256 256 255 254 256 254 254 253 252 252 251 251 253 254 262 256 255 256 256 256 254 253 254 253 253 251 251 250 251 251 252 255 256 257 257 258 260 260 261 262 264 266 269
256 255 255 254 254 254 252 251 251 251 251 250 251 253 254 254 255 255 255 256 255 254 253 250 250 251 250 249 249 249 251 254 255 256 256 257 258 259 259 260 262 264 266
255 254 254 254 254 253 252 251 250 250 250 251 250 252 253 254 256 256 256 256 256 255 252 251 250 250 250 250 249 248 248 251 255 255 255 256 256 257 258 259 260 262 264
254 254 253 254 253 253 252 251 250 249 249 251 252 252 253 255 256 256 256 256 255 255 254 253 251 250 250 250 250 249 249 253 251 254 255 254 255 255 256 258 260 261 263
256 255 255 255 253 252 251 251 252 252 251 252 252 252 253 255 256 256 256 255 255 255 253 253 252 251 251 250 250 252 252 256 255 255 255 252 253 254 256 257 259 260 262
Wind_Speed
6 4 4 4 4 4 4 4 5 7 8 9 10 11 12 13 13 12 13 14 15 16 16 18 20 20 13 14 15 17 17 13 16 7 6 10 9 11 8 11 9 11 9
6 5 5 4 4 4 4 5 4 6 7 8 10 11 12 12 13 13 14 14 15 17 17 18 20 16 19 16 14 20 20 19 15 20 6 5 10 14 12 13 10 8 10
6 6 5 5 4 5 4 4 4 5 6 7 8 10 12 12 13 13 13 15 14 15 16 18 18 20 18 16 17 17 17 16 9 9 4 2 3 8 6 6 7 8 6
6 6 6 6 5 5 4 4 4 4 5 5 6 8 10 12 12 12 15 15 14 14 16 15 17 18 19 19 17 18 19 17 13 13 5 4 3 4 8 10 6 3 5
7 7 8 6 5 4 4 4 4 5 6 5 6 7 9 10 9 14 14 14 14 15 15 15 14 18 25 25 15 18 19 15 12 9 1 3 3 2 12 7 8 5 1
7 8 6 6 5 5 4 3 4 5 6 7 8 9 11 8 22 23 20 13 13 14 15 16 15 18 20 29 31 33 25 16 14 8 4 5 9 8 9 9 7 8 5
6 6 6 6 6 5 3 3 4 5 7 7 9 9 10 11 22 24 24 12 12 11 13 15 15 13 18 18 26 30 26 29 19 10 10 6 5 9 9 9 9 11 6
6 7 6 6 6 4 3 3 3 5 5 6 7 7 7 9 22 23 25 12 11 9 12 13 14 16 17 22 20 20 19 18 16 12 11 8 8 6 10 6 7 7 6
7 7 7 7 5 4 4 2 3 4 3 3 6 7 8 10 21 23 21 11 11 13 12 9 13 15 25 31 19 19 19 17 19 27 21 19 11 10 11 8 9 11 4
7 8 6 6 5 4 3 3 2 2 5 4 7 6 9 9 18 22 19 9 11 11 10 11 19 20 30 31 19 17 17 17 19 19 12 10 7 9 18 14 12 12 8
4 4 5 4 4 4 3 3 2 3 4 5 6 6 7 7 11 21 22 9 9 10 10 11 11 27 32 34 30 14 16 20 19 15 10 6 6 2 4 2 7 8 11
4 5 4 4 3 2 3 3 3 3 4 5 5 6 5 6 11 16 22 22 21 11 11 11 12 32 32 30 21 25 26 20 11 11 10 5 4 2 3 1 1 2 3
5 5 4 4 3 3 3 3 2 3 3 4 5 6 6 6 5 17 22 22 22 15 11 16 29 28 26 18 22 23 17 10 10 10 9 11 4 2 4 3 4 6 8
6 5 4 3 3 3 3 3 3 3 3 5 5 6 6 6 6 8 8 8 13 12 11 10 18 19 19 17 12 12 9 9 9 9 9 10 7 3 3 1 1 2 3
5 4 4 3 3 3 4 3 4 5 6 5 5 6 7 7 8 18 17 10 11 12 9 8 9 9 10 10 10 10 10 9 10 11 10 10 10 4 2 1 2 2 3
5 4 4 3 3 3 2 4 9 10 12 14 16 11 5 15 20 21 22 22 18 22 5 6 9 9 9 10 10 11 10 12 10 10 10 9 9 8 2 2 1 0 2
5 4 3 4 3 3 2 3 5 5 11 12 11 12 15 16 18 20 21 21 15 14 2 5 7 8 9 9 9 9 10 10 12 10 10 10 10 10 7 0 1 1 2
3 4 3 3 3 2 3 4 3 2 4 7 7 13 14 15 17 18 18 12 9 6 2 4 6 7 8 8 9 9 9 9 9 10 10 10 10 9 9 5 1 1 3
4 3 3 3 3 4 3 3 3 3 4 5 7 9 5 15 18 14 12 1 5 6 4 4 4 6 6 7 7 8 9 9 10 9 8 9 10 9 9 8 7 2 3
4 6 4 4 4 3 3 4 4 4 4 5 5 6 4 4 4 3 3 2 3 5 5 5 5 5 5 6 6 7 7 8 8 8 9 8 9 9 9 9 8 7 2
4 4 6 3 4 3 4 5 4 3 5 5 7 7 16 8 6 6 6 5 4 5 6 5 6 5 5 4 5 5 7 7 7 7 7 7 8 9 8 8 9 8 4
5 5 4 5 4 4 5 5 5 5 5 5 7 6 17 5 6 7 6 6 6 5 5 5 6 4 5 5 5 4 5 7 6 6 7 7 7 7 8 8 8 8 9
6 6 4 4 4 4 4 5 6 5 6 5 6 7 6 6 6 7 7 7 6 6 4 4 5 6 4 5 4 4 5 6 6 6 6 6 7 7 7 8 8 8 7
6 5 5 3 3 4 5 5 5 7 6 6 5 6 7 7 8 9 7 7 6 6 4 4 4 6 6 5 4 4 4 5 5 6 6 6 6 7 6 7 7 8 7
5 6 5 5 4 4 5 6 6 7 6 6 7 6 7 7 9 9 7 6 7 6 7 5 4 6 8 9 8 8 7 10 7 7 5 4 6 7 6 6 7 6 7
7 7 6 5 5 5 5 5 7 7 6 6 6 7 7 8 9 9 7 7 7 7 7 5 6 9 9 7 8 9 9 10 8 9 6 3 4 3 4 6 9 6 7
Wind_Direction
232 227 243 271 286 294 302 306 308 317 323 326 330 328 330 329 331 327 323 321 328 327 331 329 325 328 324 321 316 312 284 242 253 228 205 188 197 207 197 210 192 198 198
229 222 232 250 268 280 287 296 292 303 319 320 325 326 327 327 326 324 320 319 325 326 327 326 328 326 330 328 324 313 310 259 234 240 175 192 204 205 190 197 198 202 202
224 225 238 248 257 266 279 285 295 298 306 312 323 324 323 324 321 317 312 315 320 320 324 323 323 326 327 330 328 324 317 295 253 244 177 213 165 187 168 189 192 195 209
216 221 234 239 243 252 272 283 294 291 293 302 303 311 316 317 317 316 312 314 319 319 320 319 320 325 321 327 325 326 320 311 300 244 183 153 196 200 182 184 181 175 182
220 220 230 234 234 240 259 268 289 299 310 301 303 315 315 317 318 320 317 314 321 321 320 320 316 317 319 325 323 325 321 310 315 283 190 119 169 200 188 178 189 151 75
221 230 221 228 226 226 243 266 291 303 313 313 320 318 320 317 319 321 323 320 320 319 318 319 318 317 322 323 325 328 324 315 311 311 262 202 218 215 194 179 166 158 187
229 234 224 225 225 224 238 263 289 307 311 316 317 315 305 311 318 323 323 321 316 311 314 315 319 319 320 319 322 327 321 324 311 304 294 254 198 199 192 180 179 195 164
246 231 220 216 215 218 226 250 285 302 305 307 304 289 290 302 322 322 324 318 308 309 305 305 313 315 317 318 326 325 322 322 321 321 300 292 282 195 195 198 183 124 75
246 238 222 196 197 206 235 246 259 276 272 266 296 306 302 302 318 325 324 317 315 310 304 306 311 313 315 320 329 322 320 320 319 313 300 297 287 214 167 136 166 156 118
248 242 196 175 187 196 218 246 243 247 286 292 301 292 291 294 312 323 325 315 316 307 307 314 318 317 317 326 326 321 317 322 320 312 308 313 273 218 183 188 176 181 146
239 186 158 160 176 191 217 205 240 259 280 281 280 280 281 277 297 317 323 325 306 309 319 321 315 315 326 323 318 313 317 326 319 310 303 298 266 173 191 252 196 193 180
168 156 156 162 190 204 213 236 246 250 265 276 284 287 267 272 285 314 320 325 314 323 316 312 309 328 323 321 323 324 334 335 325 326 315 293 290 239 115 116 68 75 31
154 168 175 184 204 218 226 235 249 242 257 285 286 287 292 283 259 300 310 310 320 321 310 335 332 329 327 326 330 330 340 337 332 334 333 324 309 332 115 99 69 76 61
177 184 183 194 224 237 245 227 215 238 249 263 275 281 286 308 305 299 288 296 310 314 343 338 331 331 331 331 330 337 336 337 329 329 320 314 305 300 54 2 122 103 82
181 184 195 201 231 247 239 238 242 226 240 255 266 288 303 308 300 313 320 322 320 328 4 348 328 333 333 335 336 336 336 338 341 335 331 336 335 343 311 98 36 56 104
184 196 205 202 213 234 230 284 276 274 284 293 296 296 297 305 311 316 322 321 339 344 0 332 325 329 329 331 334 334 337 338 341 329 331 337 334 322 295 33 68 356 114
195 185 195 222 210 217 237 236 283 310 303 303 295 304 311 304 314 317 315 317 349 353 350 322 318 323 322 324 327 329 331 331 326 331 333 332 338 335 331 76 99 150 125
191 215 196 206 229 215 226 245 242 217 291 309 294 308 306 320 317 315 314 354 336 334 250 295 307 312 317 319 323 324 325 327 332 331 332 336 347 339 339 332 249 195 132
200 213 207 228 226 230 232 244 247 247 238 253 296 309 295 319 318 314 327 139 291 296 296 291 281 300 304 310 313 315 320 323 327 329 333 341 342 340 343 345 327 288 124
209 225 212 234 242 233 219 248 255 251 264 264 269 267 294 340 298 284 242 237 253 265 280 269 282 280 290 296 302 309 313 321 326 329 333 343 340 336 340 340 337 320 195
228 205 189 193 234 239 241 237 246 245 257 267 273 274 294 298 302 295 295 286 255 272 280 271 284 273 279 281 288 295 309 312 317 325 332 337 337 335 337 333 329 327 298
218 216 186 198 210 217 247 251 249 245 249 257 278 279 299 303 279 277 281 279 269 248 254 261 278 261 266 274 285 284 291 304 309 317 323 326 327 332 335 335 333 331 332
240 239 214 196 209 222 229 244 249 247 255 253 266 281 282 275 267 267 271 276 274 271 255 238 257 277 256 261 255 242 268 281 290 300 306 314 327 333 328 327 330 335 339
226 240 242 221 209 224 237 247 246 247 247 252 251 263 269 269 271 272 271 276 276 273 252 249 246 258 277 274 267 261 252 266 275 275 281 306 305 315 313 318 321 324 323
207 220 219 226 221 226 245 255 259 254 247 247 259 255 264 270 272 271 271 272 273 273 275 263 249 255 262 274 277 276 267 280 274 270 262 257 281 299 301 302 311 324 324
227 225 229 229 225 227 232 245 255 253 250 254 251 252 252 262 267 270 274 273 273 272 270 263 261 263 273 266 268 272 264 271 260 252 240 215 241 269 298 310 319 316 325